Location: *
(33.8649°S, 62.1526°E)
Time: 12:54:22
(UTC+00:00)

Cosmos 1782 Rocket - Pass Details

Date: 17 January 2021
Orbit: 606 x 633 km, 82.5° (Epoch: 02 March)

Event Time Altitude Azimuth Distance (km) Brightness Sun altitude
Rises 22:30:03 0° 188° (S) 2,905 7.6 -25.1°
Reaches altitude 10° 22:32:17 10° 189° (S) 1,995 6.7 -24.8°
Enters shadow 22:36:24 74° 226° (SW) 649 3.5 -24.3°
